Location: Gleizolles
(44.4833°N, 6.7667°E)
Time: 15:46:54
(UTC+00:00)

Altair - Pass Details

Date: 28 June 2024
Orbit: 1502 x 1681 km, 47.2° (Epoch: 13 July)

Event Time Altitude Azimuth Distance (km) Brightness Sun altitude
Rises 22:23:31 0° 211° (SSW) 4,629 - -20.3°
Reaches altitude 10° 22:26:44 10° 204° (SSW) 3,645 - -20.4°
Exits shadow 22:31:07 28° 184° (S) 2,504 8.1 -20.7°
Maximum altitude 22:35:03 41° 138° (SE) 2,060 7.7 -20.9°
Drops below altitude 10° 22:43:29 10° 72° (ENE) 3,698 9.5 -21.2°
Sets 22:46:46 0° 66° (ENE) 4,702 10.2 -21.4°
